EW8291 Weather Reports


Display with metric or nautical units.
time (UTC)temp
F
wind
direction
speed
MPH
gust
MPH
rain 1hr
in
rain 24hr
in
rain mn
in
humidity
%
barometer
mb
20180123015605 33 202 1.0 2.0 0.00 0.00 0.00 100 1019.0
20180123015106 33 202 2.0 3.0 0.00 0.00 0.00 100 1019.0
20180123014605 33 158 3.0 5.0 0.00 0.00 0.00 100 1019.0
20180123014106 33 135 2.0 5.0 0.00 0.00 0.00 100 1019.0
20180123013606 33 140 3.0 6.0 0.00 0.00 0.00 100 1019.0
20180123013105 33 154 4.0 5.0 0.00 0.00 0.00 100 1019.0
20180123012605 33 136 5.0 6.0 0.00 0.00 0.00 100 1019.0
20180123012105 33 120 3.0 5.0 0.00 0.00 0.00 100 1019.0
20180123011605 33 163 3.0 5.0 0.00 0.00 0.00 100 1019.0
20180123011105 33 177 3.0 6.0 0.00 0.00 0.00 100 1019.0
20180123010605 33 151 5.0 7.0 0.00 0.00 0.00 100 1019.0
20180123010106 33 156 5.0 6.0 0.00 0.00 0.00 100 1018.0
20180123005605 33 158 2.0 3.0 0.00 0.00 0.00 100 1018.0
20180123005105 33 141 3.0 5.0 0.00 0.00 0.00 100 1018.0
20180123004605 33 178 5.0 7.0 0.00 0.00 0.00 100 1019.0
20180123004106 33 182 6.0 7.0 0.00 0.00 0.00 100 1019.0
20180123003606 33 203 5.0 8.0 0.00 0.00 0.00 100 1019.0
20180123003105 33 162 4.0 7.0 0.00 0.00 0.00 100 1018.0
20180123002605 33 114 5.0 10.0 0.00 0.00 0.00 100 1018.0
20180123002105 33 123 6.0 10.0 0.00 0.00 0.00 100 1018.0
20180123001605 33 153 3.0 10.0 0.00 0.00 0.00 100 1019.0
20180123001106 33 153 6.0 7.0 0.00 0.00 0.00 100 1019.0
20180123000605 33 154 3.0 7.0 0.00 0.00 0.00 100 1019.0
20180123000105 33 161 5.0 7.0 0.00 0.00 0.00 100 1018.0
20180122235605 33 149 5.0 7.0 0.00 0.00 0.00 100 1018.0
20180122235105 33 163 5.0 6.0 0.00 0.00 0.00 100 1018.0
20180122234605 33 158 5.0 8.0 0.00 0.00 0.00 100 1017.0
20180122234105 33 88 6.0 9.0 0.00 0.00 0.00 100 1017.0
20180122233605 33 136 6.0 13.0 0.00 0.00 0.00 100 1017.0
20180122233105 33 135 7.0 12.0 0.00 0.00 0.00 100 1018.0
20180122232605 33 134 3.0 6.0 0.00 0.00 0.00 100 1018.0
20180122232105 33 169 3.0 7.0 0.00 0.00 0.00 100 1018.0
20180122231605 33 149 2.0 6.0 0.00 0.00 0.00 100 1017.0
20180122231107 33 143 5.0 7.0 0.00 0.00 0.00 100 1017.0
20180122230605 33 158 4.0 6.0 0.00 0.00 0.00 100 1017.0
20180122230105 33 155 4.0 7.0 0.00 0.00 0.00 100 1017.0
20180122225605 32 174 4.0 7.0 0.00 0.00 0.00 100 1017.0
20180122225105 32 149 5.0 7.0 0.00 0.00 0.00 100 1017.0
20180122224605 32 150 7.0 12.0 0.00 0.00 0.00 100 1018.0
20180122224105 33 153 7.0 10.0 0.00 0.00 0.00 100 1018.0
20180122223606 33 175 9.0 14.0 0.00 0.00 0.00 100 1018.0
20180122223105 33 135 8.0 13.0 0.00 0.00 0.00 100 1017.0
20180122222605 33 163 8.0 12.0 0.00 0.00 0.00 100 1017.0
20180122222105 33 163 6.0 13.0 0.00 0.00 0.00 100 1017.0
20180122221605 33 150 10.0 15.0 0.00 0.00 0.00 100 1017.0
20180122221105 32 147 7.0 12.0 0.00 0.00 0.00 100 1017.0
20180122220605 32 138 6.0 10.0 0.00 0.00 0.00 100 1017.0
20180122220105 32 152 9.0 14.0 0.00 0.00 0.00 100 1017.0
20180122215605 32 125 9.0 15.0 0.00 0.00 0.00 100 1017.0
20180122215105 32 130 9.0 12.0 0.00 0.00 0.00 100 1017.0
20180122214605 32 150 9.0 14.0 0.00 0.00 0.00 100 1018.0
20180122214105 32 144 8.0 12.0 0.00 0.00 0.00 100 1018.0
20180122213605 32 149 8.0 10.0 0.00 0.00 0.00 100 1018.0
20180122213106 32 140 8.0 9.0 0.00 0.00 0.00 100 1016.0
20180122212605 32 144 7.0 14.0 0.00 0.00 0.00 100 1016.0
20180122212105 31 179 5.0 7.0 0.00 0.00 0.00 100 1016.0
20180122211605 31 164 6.0 10.0 0.00 0.00 0.00 100 1017.0
20180122211105 31 170 5.0 12.0 0.00 0.00 0.00 100 1017.0
20180122210605 31 125 6.0 12.0 0.00 0.00 0.00 100 1017.0
20180122210105 31 146 8.0 13.0 0.00 0.00 0.00 100 1016.0
20180122205605 31 153 10.0 14.0 0.00 0.00 0.00 100 1016.0
20180122205105 32 148 8.0 12.0 0.00 0.00 0.00 100 1016.0
20180122204606 32 158 8.0 15.0 0.00 0.00 0.00 100 1016.0
20180122204105 32 121 8.0 10.0 0.00 0.00 0.00 100 1016.0
20180122203606 32 162 7.0 9.0 0.00 0.00 0.00 100 1016.0
20180122203105 32 138 9.0 14.0 0.00 0.00 0.00 100 1016.0
20180122202605 32 125 8.0 13.0 0.00 0.00 0.00 100 1016.0
20180122202105 32 156 9.0 10.0 0.00 0.00 0.00 100 1016.0
20180122201605 32 139 7.0 12.0 0.00 0.08 0.00 100 1017.0
20180122201105 32 152 7.0 9.0 0.00 0.08 0.00 100 1017.0
20180122200605 32 153 6.0 9.0 0.00 0.08 0.00 100 1017.0
20180122200105 32 170 6.0 12.0 0.00 0.08 0.00 100 1016.0
20180122195605 32 181 6.0 8.0 0.00 0.08 0.00 100 1016.0
20180122195105 32 158 6.0 10.0 0.00 0.08 0.00 100 1016.0
20180122194606 33 157 9.0 13.0 0.00 0.08 0.00 100 1016.0
20180122194105 32 134 7.0 13.0 0.00 0.08 0.00 100 1016.0
20180122193606 32 146 7.0 13.0 0.00 0.08 0.00 100 1016.0
20180122193106 32 167 8.0 13.0 0.00 0.08 0.00 100 1016.0
20180122192606 32 140 6.0 12.0 0.00 0.08 0.00 100 1016.0
20180122192105 32 150 8.0 16.0 0.00 0.08 0.00 100 1016.0
20180122191607 32 145 10.0 12.0 0.00 0.08 0.00 100 1016.0
20180122191105 32 126 7.0 12.0 0.00 0.08 0.00 100 1016.0
20180122190605 32 132 8.0 12.0 0.00 0.08 0.00 100 1016.0
20180122190105 32 142 7.0 15.0 0.00 0.08 0.00 100 1016.0
20180122185605 32 126 9.0 12.0 0.00 0.08 0.00 100 1016.0
20180122185105 32 127 8.0 13.0 0.00 0.08 0.00 100 1016.0
20180122184605 32 145 9.0 15.0 0.00 0.08 0.00 100 1016.0
20180122184105 32 147 7.0 12.0 0.00 0.08 0.00 100 1016.0
20180122183605 32 156 9.0 14.0 0.00 0.08 0.00 100 1016.0
20180122183105 32 137 10.0 15.0 0.00 0.08 0.00 100 1016.0
20180122182605 32 151 8.0 12.0 0.00 0.08 0.00 100 1016.0
20180122182105 32 144 9.0 15.0 0.00 0.08 0.00 100 1016.0
20180122181605 32 147 5.0 13.0 0.00 0.08 0.00 100 1016.0
20180122181105 32 144 6.0 12.0 0.00 0.08 0.00 100 1016.0
20180122180605 32 146 10.0 13.0 0.00 0.08 0.00 100 1016.0
20180122180105 32 145 11.0 15.0 0.00 0.08 0.00 100 1016.0
20180122175606 32 132 11.0 20.0 0.00 0.08 0.00 100 1016.0
20180122175105 32 145 7.0 10.0 0.00 0.08 0.00 100 1016.0
20180122174605 32 132 10.0 15.0 0.00 0.08 0.00 100 1016.0
20180122174105 32 108 7.0 14.0 0.00 0.08 0.00 100 1016.0
20180122173605 32 138 9.0 13.0 0.00 0.08 0.00 100 1016.0
20180122173105 32 167 8.0 13.0 0.00 0.08 0.00 100 1015.0
20180122172605 32 121 8.0 13.0 0.00 0.08 0.00 100 1015.0
20180122172105 32 147 12.0 16.0 0.00 0.08 0.00 100 1015.0
20180122171605 32 135 9.0 15.0 0.00 0.08 0.00 100 1015.0
20180122171105 32 90 9.0 18.0 0.00 0.08 0.00 100 1015.0
20180122170605 32 108 10.0 15.0 0.00 0.08 0.00 100 1015.0
20180122170106 32 153 11.0 13.0 0.00 0.08 0.00 100 1015.0
20180122165605 32 106 6.0 10.0 0.00 0.08 0.00 100 1015.0
20180122165105 32 159 8.0 13.0 0.00 0.08 0.00 100 1015.0
20180122164605 32 153 10.0 15.0 0.00 0.08 0.00 100 1014.0
20180122164106 32 147 8.0 15.0 0.00 0.08 0.00 100 1014.0
20180122163605 32 153 7.0 13.0 0.00 0.08 0.00 100 1014.0
20180122163105 32 128 9.0 13.0 0.00 0.08 0.00 100 1014.0
20180122162605 32 163 7.0 10.0 0.00 0.08 0.00 100 1014.0
20180122162119 32 158 8.0 10.0 0.00 0.08 0.00 100 1014.0
20180122161605 32 158 6.0 9.0 0.00 0.08 0.00 100 1015.0
20180122161105 31 192 6.0 10.0 0.00 0.08 0.00 100 1015.0
20180122160605 32 165 6.0 10.0 0.00 0.08 0.00 100 1015.0
20180122160105 31 174 5.0 7.0 0.00 0.08 0.00 100 1014.0
20180122155605 32 165 6.0 10.0 0.00 0.08 0.00 100 1014.0
20180122155105 32 128 6.0 14.0 0.00 0.08 0.00 100 1014.0
20180122154604 32 100 7.0 14.0 0.00 0.08 0.00 100 1015.0
20180122154105 31 117 6.0 12.0 0.00 0.08 0.00 100 1015.0
20180122153605 31 111 7.0 13.0 0.00 0.08 0.00 100 1015.0
20180122153106 31 97 6.0 15.0 0.00 0.08 0.00 100 1014.0
20180122152605 31 112 5.0 9.0 0.00 0.08 0.00 100 1014.0
20180122152105 31 111 7.0 13.0 0.00 0.08 0.00 100 1014.0
20180122151605 32 104 6.0 13.0 0.00 0.08 0.00 100 1015.0
20180122151105 32 128 8.0 14.0 0.00 0.08 0.00 100 1015.0
20180122150604 32 149 7.0 12.0 0.00 0.08 0.00 100 1015.0
20180122150105 32 123 7.0 12.0 0.00 0.08 0.00 100 1014.0
20180122145605 32 120 6.0 12.0 0.00 0.08 0.00 100 1014.0
20180122145105 32 206 6.0 12.0 0.00 0.08 0.00 100 1014.0
20180122144605 32 140 7.0 12.0 0.00 0.08 0.00 100 1014.0
20180122144106 32 152 10.0 10.0 0.00 0.08 0.00 100 1014.0
20180122143605 32 151 6.0 10.0 0.00 0.08 0.00 100 1014.0
20180122143105 33 177 6.0 9.0 0.00 0.08 0.00 100 1015.0
20180122142604 33 109 7.0 10.0 0.00 0.08 0.00 100 1015.0
20180122142107 33 139 8.0 12.0 0.00 0.08 0.00 100 1015.0
20180122141605 33 132 4.0 9.0 0.00 0.08 0.00 100 1015.0
20180122141105 33 104 6.0 10.0 0.00 0.08 0.00 100 1015.0
20180122140605 33 143 7.0 10.0 0.00 0.08 0.00 100 1015.0
20180122140105 33 125 6.0 9.0 0.00 0.08 0.00 100 1015.0
20180122135604 33 130 6.0 10.0 0.00 0.08 0.00 100 1015.0
20180122135105 33 131 7.0 12.0 0.00 0.08 0.00 100 1015.0
20180122134605 33 123 6.0 10.0 0.00 0.08 0.00 100 1014.0
20180122134105 33 126 8.0 10.0 0.00 0.08 0.00 100 1014.0
20180122133605 33 158 4.0 7.0 0.00 0.08 0.00 100 1014.0
20180122133105 33 152 7.0 10.0 0.00 0.08 0.00 100 1015.0
20180122132605 33 117 6.0 12.0 0.00 0.08 0.00 100 1015.0
20180122132105 33 135 7.0 12.0 0.00 0.08 0.00 100 1015.0
20180122131605 33 141 10.0 13.0 0.00 0.08 0.00 100 1015.0
20180122131105 33 156 8.0 13.0 0.00 0.08 0.00 100 1015.0
20180122130606 33 121 7.0 12.0 0.00 0.08 0.00 100 1015.0
20180122130105 33 134 10.0 13.0 0.00 0.08 0.00 100 1015.0
20180122125605 33 149 7.0 12.0 0.00 0.08 0.00 100 1015.0
20180122125105 33 154 9.0 12.0 0.00 0.08 0.00 100 1015.0
20180122124605 33 123 7.0 12.0 0.00 0.08 0.00 100 1016.0
20180122124105 34 164 7.0 10.0 0.00 0.08 0.00 100 1016.0
20180122123606 34 148 7.0 10.0 0.00 0.08 0.00 100 1016.0
20180122123105 35 158 7.0 12.0 0.00 0.08 0.00 100 1016.0
20180122122605 37 127 7.0 12.0 0.00 0.08 0.00 100 1016.0
20180122122105 35 155 8.0 13.0 0.00 0.08 0.00 100 1016.0
20180122121605 36 151 7.0 9.0 0.00 0.08 0.00 100 1017.0
20180122121104 36 136 6.0 8.0 0.00 0.08 0.00 100 1017.0
20180122120605 35 149 7.0 10.0 0.00 0.08 0.00 100 1017.0
20180122120105 33 155 1.0 2.0 0.00 0.08 0.00 100 1017.0
20180122115605 35 3 2.0 3.0 0.00 0.08 0.00 100 1017.0
20180122115105 35 354 1.0 2.0 0.00 0.08 0.00 100 1017.0
20180122114605 34 22 1.0 3.0 0.00 0.08 0.00 100 1017.0
20180122114104 33 6 4.0 6.0 0.00 0.08 0.00 100 1017.0
20180122113605 32 22 3.0 5.0 0.00 0.08 0.00 100 1017.0
20180122113104 33 25 2.0 3.0 0.00 0.08 0.00 100 1017.0
20180122112605 33 33 2.0 5.0 0.00 0.08 0.00 100 1017.0
20180122112104 34 202 0.0 1.0 0.00 0.08 0.00 100 1017.0
20180122111605 32 202 2.0 3.0 0.00 0.08 0.00 100 1017.0
20180122111104 32 202 2.0 3.0 0.00 0.08 0.00 100 1017.0
20180122110605 33 202 2.0 3.0 0.00 0.08 0.00 100 1017.0
20180122110105 32 218 2.0 3.0 0.00 0.08 0.00 100 1018.0
20180122105605 32 225 2.0 3.0 0.00 0.08 0.00 100 1018.0
20180122105105 32 225 2.0 3.0 0.00 0.08 0.00 100 1018.0
20180122104604 32 158 0.0 1.0 0.00 0.08 0.00 100 1018.0
20180122104105 31 158 2.0 3.0 0.00 0.08 0.00 100 1018.0
20180122103605 31 158 1.0 2.0 0.00 0.08 0.00 100 1018.0
20180122103104 31 158 2.0 2.0 0.00 0.08 0.00 100 1019.0
20180122102605 31 158 1.0 2.0 0.00 0.08 0.00 100 1019.0
20180122102104 30 158 1.0 2.0 0.00 0.08 0.00 100 1019.0
20180122101605 31 158 3.0 5.0 0.00 0.08 0.00 100 1020.0
20180122101107 31 186 1.0 3.0 0.00 0.08 0.00 100 1020.0
20180122100605 31 112 1.0 6.0 0.00 0.08 0.00 100 1020.0
20180122100105 31 132 1.0 3.0 0.00 0.08 0.00 100 1018.0
20180122095605 32 158 1.0 3.0 0.00 0.08 0.00 100 1018.0
20180122095105 30 180 2.0 5.0 0.00 0.08 0.00 100 1018.0
20180122094606 30 133 2.0 3.0 0.00 0.08 0.00 100 1019.0
20180122094105 30 158 2.0 2.0 0.00 0.08 0.00 100 1019.0
20180122093605 29 202 2.0 5.0 0.00 0.08 0.00 100 1019.0
20180122093106 29 112 2.0 3.0 0.00 0.08 0.00 100 1019.0
20180122092605 29 112 1.0 3.0 0.00 0.08 0.00 100 1019.0
20180122092105 29 112 2.0 5.0 0.00 0.08 0.00 100 1019.0
20180122091605 28 246 0.0 3.0 0.00 0.08 0.00 100 1019.0
20180122091105 29 292 0.0 1.0 0.00 0.08 0.00 100 1019.0
20180122090605 28 292 0.0 1.0 0.00 0.08 0.00 100 1019.0
20180122090105 29 292 1.0 2.0 0.00 0.08 0.00 100 1019.0
20180122085604 28 292 1.0 1.0 0.00 0.08 0.00 100 1019.0
20180122085105 28 292 0.0 1.0 0.00 0.08 0.00 100 1019.0
20180122084604 28 292 0.0 0.0 0.00 0.08 0.00 100 1019.0
20180122084105 27 292 0.0 0.0 0.00 0.08 0.00 100 1019.0
20180122083604 27 292 1.0 2.0 0.00 0.08 0.00 100 1019.0
20180122083105 27 292 0.0 2.0 0.00 0.08 0.00 100 1019.0
20180122082605 27 292 1.0 3.0 0.00 0.08 0.00 100 1019.0
20180122082105 27 292 2.0 5.0 0.00 0.08 0.00 100 1019.0
20180122081604 26 338 2.0 3.0 0.00 0.08 0.00 100 1019.0
20180122081105 26 300 2.0 3.0 0.00 0.08 0.00 100 1019.0
20180122080604 26 22 1.0 2.0 0.00 0.08 0.00 100 1019.0
20180122080105 26 22 0.0 0.0 0.00 0.08 0.00 100 1019.0
20180122075105 26 22 1.0 2.0 0.00 0.08 0.00 100 1019.0
20180122074605 25 22 1.0 2.0 0.00 0.08 0.00 100 1019.0
20180122074105 25 22 1.0 2.0 0.00 0.08 0.00 100 1019.0
20180122073605 25 22 1.0 2.0 0.00 0.08 0.00 100 1019.0
20180122073105 25 338 2.0 3.0 0.00 0.08 0.00 100 1019.0
20180122072604 25 338 2.0 3.0 0.00 0.08 0.00 100 1019.0
20180122072105 25 0 2.0 3.0 0.00 0.08 0.00 100 1019.0
20180122071605 25 315 2.0 2.0 0.00 0.08 0.00 100 1018.0
20180122071105 25 338 1.0 2.0 0.00 0.08 0.00 100 1018.0
20180122070605 25 338 3.0 6.0 0.00 0.08 0.00 100 1018.0
20180122070105 25 345 3.0 5.0 0.00 0.08 0.00 100 1019.0
20180122065605 24 248 0.0 2.0 0.00 0.08 0.00 100 1019.0
20180122065104 24 248 0.0 0.0 0.00 0.08 0.00 100 1019.0
20180122064605 24 248 0.0 0.0 0.00 0.08 0.00 100 1019.0
20180122064105 24 248 0.0 0.0 0.00 0.08 0.00 100 1019.0
20180122063604 24 248 0.0 0.0 0.00 0.08 0.00 100 1019.0
20180122063105 24 248 1.0 1.0 0.00 0.08 0.00 100 1019.0
20180122062606 24 112 0.0 0.0 0.00 0.08 0.00 100 1019.0
20180122062105 24 112 0.0 0.0 0.00 0.08 0.00 100 1019.0
20180122061605 24 112 0.0 2.0 0.00 0.08 0.00 100 1019.0
20180122061105 24 135 2.0 2.0 0.00 0.08 0.00 100 1019.0
20180122060604 24 0 0.0 2.0 0.00 0.08 0.00 100 1019.0
20180122060105 24 202 1.0 2.0 0.00 0.08 0.00 100 1020.0
20180122055604 24 202 0.0 0.0 0.00 0.08 0.00 100 1020.0
20180122055105 24 202 1.0 1.0 0.00 0.08 0.00 100 1020.0
20180122054604 24 158 1.0 2.0 0.00 0.08 0.00 100 1020.0
20180122054105 24 138 2.0 3.0 0.00 0.08 0.00 100 1020.0
20180122053605 24 138 2.0 3.0 0.00 0.08 0.00 100 1020.0
20180122053105 24 22 0.0 0.0 0.00 0.08 0.00 100 1020.0
20180122052605 24 22 0.0 0.0 0.00 0.08 0.00 100 1020.0
20180122052104 24 22 0.0 0.0 0.00 0.08 0.00 100 1020.0
20180122051605 24 22 1.0 2.0 0.00 0.08 0.00 100 1020.0
20180122051104 24 22 0.0 0.0 0.00 0.08 0.00 100 1020.0
20180122050606 24 22 2.0 2.0 0.00 0.08 0.00 100 1020.0
20180122050105 24 22 1.0 3.0 0.00 0.08 0.00 100 1020.0
20180122045605 24 22 2.0 5.0 0.00 0.08 0.00 100 1020.0
20180122045105 24 45 2.0 3.0 0.00 0.08 0.00 100 1020.0
20180122044605 24 338 1.0 3.0 0.00 0.08 0.00 100 1020.0
20180122044104 24 357 1.0 5.0 0.00 0.08 0.00 100 1020.0
20180122043604 24 85 3.0 5.0 0.00 0.08 0.00 100 1020.0
20180122043104 24 292 2.0 5.0 0.00 0.08 0.00 100 1020.0
20180122042604 24 292 3.0 5.0 0.00 0.08 0.00 100 1020.0
20180122042105 24 292 3.0 3.0 0.00 0.08 0.00 100 1020.0
20180122041605 24 202 0.0 0.0 0.00 0.08 0.00 100 1021.0
20180122041104 24 202 2.0 3.0 0.00 0.08 0.00 100 1021.0
20180122040604 25 192 0.0 3.0 0.00 0.08 0.00 100 1021.0
20180122040105 24 124 5.0 7.0 0.00 0.08 0.00 100 1021.0
20180122035604 23 132 3.0 5.0 0.00 0.08 0.00 100 1021.0
20180122035105 23 17 3.0 5.0 0.00 0.08 0.00 100 1021.0
20180122034605 24 338 5.0 6.0 0.00 0.08 0.00 100 1020.0
20180122034104 24 324 5.0 6.0 0.00 0.08 0.00 100 1020.0
20180122033605 24 338 3.0 5.0 0.00 0.08 0.00 100 1020.0
20180122033105 23 296 3.0 3.0 0.00 0.08 0.00 100 1021.0
20180122032604 24 292 0.0 0.0 0.00 0.08 0.00 100 1021.0
20180122032105 24 22 0.0 0.0 0.00 0.08 0.00 100 1021.0
20180122031605 24 22 0.0 0.0 0.00 0.08 0.00 100 1021.0
20180122031105 24 180 0.0 0.0 0.00 0.08 0.00 100 1021.0
20180122030605 23 180 0.0 0.0 0.00 0.08 0.00 100 1021.0
20180122030118 24 180 0.0 0.0 0.00 0.08 0.00 100 1021.0
20180122025604 24 180 0.0 0.0 0.00 0.08 0.00 100 1021.0
20180122025105 24 180 0.0 0.0 0.00 0.08 0.00 100 1021.0
20180122024605 25 180 0.0 0.0 0.00 0.08 0.00 100 1021.0
20180122024105 25 180 0.0 0.0 0.00 0.08 0.00 100 1021.0
20180122023605 25 180 0.0 0.0 0.00 0.08 0.00 100 1021.0
20180122023104 24 180 0.0 0.0 0.00 0.08 0.00 100 1022.0
20180122022605 25 180 0.0 0.0 0.00 0.08 0.00 100 1022.0
20180122022105 25 180 0.0 0.0 0.00 0.08 0.00 100 1022.0
20180122021604 25 180 1.0 2.0 0.00 0.08 0.00 100 1022.0
20180122021105 25 202 0.0 0.0 0.00 0.08 0.00 100 1022.0
20180122020604 25 202 1.0 2.0 0.00 0.08 0.00 100 1022.0
20180122020105 25 202 0.0 0.0 0.00 0.08 0.00 100 1020.0